TimeEST,TemperatureF,Dew PointF,Humidity,Sea Level PressureIn,VisibilityMPH,Wind Direction,Wind SpeedMPH,Gust SpeedMPH,PrecipitationIn,Events,Conditions,WindDirDegrees,DateUTC
12:04 AM,43.0,41.0,93,29.84,5.0,Calm,Calm,-,N/A,,Overcast,0,2013-02-24 05:04:00
12:44 AM,43.0,41.0,93,29.84,5.0,Calm,Calm,-,N/A,,Overcast,0,2013-02-24 05:44:00
12:51 AM,42.8,41.0,93,29.85,5.0,Variable,3.5,-,N/A,,Overcast,0,2013-02-24 05:51:00
12:56 AM,43.0,41.0,93,29.86,4.0,Calm,Calm,-,N/A,,Overcast,0,2013-02-24 05:56:00
1:22 AM,43.0,41.0,93,29.85,3.0,Variable,3.5,-,N/A,,Overcast,0,2013-02-24 06:22:00
1:28 AM,43.0,41.0,93,29.84,2.0,Calm,Calm,-,N/A,,Overcast,0,2013-02-24 06:28:00
1:56 AM,43.0,41.0,93,29.84,2.5,Calm,Calm,-,N/A,,Overcast,0,2013-02-24 06:56:00
2:09 AM,43.0,41.0,93,29.83,3.0,Calm,Calm,-,N/A,,Overcast,0,2013-02-24 07:09:00
2:34 AM,43.0,41.0,93,29.82,2.0,Calm,Calm,-,0.02,Rain,Light Rain,0,2013-02-24 07:34:00
2:56 AM,43.0,41.0,93,29.81,4.0,West,3.5,-,0.02,,Overcast,260,2013-02-24 07:56:00
3:56 AM,44.1,42.1,93,29.80,4.0,West,3.5,-,N/A,,Overcast,260,2013-02-24 08:56:00
4:23 AM,44.1,42.1,93,29.81,3.0,West,3.5,-,N/A,,Overcast,280,2013-02-24 09:23:00
4:34 AM,44.1,42.1,93,29.81,3.0,Variable,3.5,-,N/A,,Overcast,0,2013-02-24 09:34:00
4:53 AM,42.8,42.8,100,29.81,2.5,West,4.6,-,N/A,,Overcast,270,2013-02-24 09:53:00
4:56 AM,43.0,42.1,97,29.81,2.5,West,3.5,-,N/A,,Overcast,260,2013-02-24 09:56:00
5:23 AM,43.0,41.0,93,29.82,1.8,West,5.8,-,N/A,,Overcast,270,2013-02-24 10:23:00
5:33 AM,43.0,41.0,93,29.83,2.0,Variable,5.8,-,N/A,,Overcast,0,2013-02-24 10:33:00
5:48 AM,43.0,41.0,93,29.83,3.0,West,6.9,-,N/A,,Mostly Cloudy,270,2013-02-24 10:48:00
5:56 AM,43.0,41.0,93,29.84,3.0,West,6.9,-,N/A,,Mostly Cloudy,270,2013-02-24 10:56:00
6:05 AM,43.0,41.0,93,29.83,3.0,West,5.8,-,N/A,,Scattered Clouds,260,2013-02-24 11:05:00
6:56 AM,42.1,39.9,92,29.86,3.0,West,5.8,-,N/A,,Clear,280,2013-02-24 11:56:00
7:04 AM,42.1,39.9,92,29.86,2.5,WNW,5.8,-,N/A,,Clear,290,2013-02-24 12:04:00
7:45 AM,43.0,41.0,93,29.88,3.0,WNW,5.8,-,N/A,,Clear,290,2013-02-24 12:45:00
7:56 AM,44.1,41.0,89,29.89,4.0,West,6.9,-,N/A,,Clear,280,2013-02-24 12:56:00
8:56 AM,48.9,42.1,77,29.93,10.0,WNW,5.8,-,N/A,,Clear,290,2013-02-24 13:56:00
9:56 AM,52.0,37.9,59,29.94,10.0,WNW,8.1,-,N/A,,Clear,300,2013-02-24 14:56:00
10:56 AM,54.0,39.0,57,29.94,10.0,WNW,9.2,-,N/A,,Clear,290,2013-02-24 15:56:00
11:56 AM,55.9,37.0,49,29.93,10.0,Variable,4.6,-,N/A,,Clear,0,2013-02-24 16:56:00
12:56 PM,57.9,37.0,46,29.92,10.0,West,8.1,-,N/A,,Clear,270,2013-02-24 17:56:00
1:56 PM,59.0,34.0,39,29.90,10.0,Variable,5.8,-,N/A,,Clear,0,2013-02-24 18:56:00
2:56 PM,60.1,34.0,38,29.89,10.0,West,8.1,-,N/A,,Clear,270,2013-02-24 19:56:00
3:56 PM,61.0,25.0,25,29.89,10.0,West,16.1,25.3,N/A,,Clear,280,2013-02-24 20:56:00
4:56 PM,60.1,24.1,25,29.91,10.0,WNW,11.5,18.4,N/A,,Clear,290,2013-02-24 21:56:00
5:56 PM,53.1,27.0,37,29.93,10.0,Calm,Calm,-,N/A,,Clear,0,2013-02-24 22:56:00
6:56 PM,46.9,30.9,54,29.95,10.0,Calm,Calm,-,N/A,,Clear,0,2013-02-24 23:56:00
7:56 PM,45.0,30.9,58,29.98,10.0,WNW,6.9,-,N/A,,Clear,300,2013-02-25 00:56:00
8:56 PM,50.0,23.0,35,30.01,10.0,NW,4.6,-,N/A,,Clear,320,2013-02-25 01:56:00
9:56 PM,46.0,23.0,40,30.01,10.0,NW,5.8,-,N/A,,Clear,320,2013-02-25 02:56:00
10:56 PM,46.9,21.0,36,30.02,10.0,NW,4.6,-,N/A,,Clear,310,2013-02-25 03:56:00
11:56 PM,42.1,24.1,49,30.04,10.0,NNW,3.5,-,N/A,,Clear,330,2013-02-25 04:56:00